This is the latest recevied weather packets stored in our database for station/object N2XGL-1. If no packets are shown the sender has not sent any weather packets the latest 10 day(s).
| Time | Temp. | Humidity | Pressure | Rain* | Wind** | Luminosity | Snow |
|---|---|---|---|---|---|---|---|
| 1777467059 | 3.33° C | 83% | 1016.5 hPa | 0 mm | - | - | - |
| 1777466519 | 3.33° C | 84% | 1016.5 hPa | 0 mm | - | - | - |
| 1777466039 | 2.78° C | 85% | 1016.1 hPa | 0 mm | - | - | - |
| 1777465559 | 2.78° C | 85% | 1016.1 hPa | 0 mm | - | - | - |
| 1777465022 | 2.22° C | 85% | 1016 hPa | 0 mm | - | - | - |
| 1777464444 | 2.22° C | 84% | 1015.8 hPa | 0 mm | - | - | - |
| 1777463899 | 2.22° C | 86% | 1015.8 hPa | 0 mm | - | - | - |
| 1777463314 | 2.22° C | 86% | 1015.8 hPa | 0 mm | - | - | - |
| 1777463130 | 2.22° C | 85% | 1015.8 hPa | 0 mm | - | - | - |
| 1777462829 | 2.22° C | 85% | 1015.8 hPa | 0 mm | - | - | - |
| 1777462289 | 2.22° C | 85% | 1015.8 hPa | 0 mm | - | - | - |
| 1777461689 | 2.22° C | 84% | 1015.8 hPa | 0 mm | - | - | - |
| 1777461104 | 2.78° C | 84% | 1015.7 hPa | 0 mm | - | - | - |
| 1777460569 | 2.78° C | 84% | 1015.9 hPa | 0 mm | - | - | - |
| 1777460034 | 2.78° C | 84% | 1015.9 hPa | 0 mm | - | - | - |
| 1777459500 | 2.78° C | 84% | 1016 hPa | 0 mm | - | - | - |
| 1777458962 | 2.78° C | 83% | 1015.9 hPa | 0 mm | - | - | - |
| 1777458859 | 3.33° C | 83% | 1016.1 hPa | 0 mm | - | - | - |
| 1777458439 | 3.33° C | 83% | 1016.1 hPa | 0 mm | - | - | - |
| 1777457929 | 3.33° C | 83% | 1016.1 hPa | 0 mm | - | - | - |
| 1777457424 | 3.33° C | 82% | 1016.1 hPa | 0 mm | - | - | - |
| 1777456942 | 3.33° C | 82% | 1016.2 hPa | 0 mm | - | - | - |
| 1777456381 | 3.89° C | 81% | 1016.2 hPa | 0 mm | - | - | - |
| 1777455894 | 3.89° C | 81% | 1016.3 hPa | 0 mm | - | - | - |
| 1777455334 | 3.89° C | 80% | 1016.4 hPa | 0 mm | - | - | - |
* Rain latest hour (hover to see other rain measurements)
** Current wind speed in m/s (hover to see current wind gust speed)